Погода в Сан-Фернандо-де-Монте Кристи

Доминиканская Республика     19°50′59″N   71°38′27″W
темп.,
°C
ветер,
м/с
пор.,
м/с
влажн.,
%
обл.,
%
осадки,
мм/ч
давл.,
гПа
погр.,
м
23 июля, пт
пт2323:00+27в711755 0.2 1018662
02:00+26в711770 0.2 1017702
05:00+25вюв5108215 0.0 1017469
08:00+26вюв5974100 0.0 1018612
11:00+33в57495 0.0 10171075
14:00+33св10950100 0.0 10141662
17:00+31св11126194 0.1 1013976
20:00+28всв10127949 0.6 1015382
24 июля, сб
сб2423:00+27в588096 2.3 1016358
02:00+26в6107896 2.6 1015517
05:00+26вюв6881100 0.0 1014447
08:00+27вюв55716 0.0 1015491
11:00+31зсз13554 0.0 1015928
14:00+32с755710 0.0 10131062
17:00+30св99678 0.0 1012751
20:00+26ююв677951 5.4 1014226
25 июля, вс
вс2523:00+24ююв45773 0.2 1015179
02:00+24юв337397 0.2 1013117
05:00+24юв337368 0.0 1013116
08:00+25вюв34746 0.1 1014289
11:00+30ссв125672 0.0 1014709
14:00+29с746884 0.0 1012756
17:00+30св886642 0.0 1011696
20:00+27вюв237599 1.8 101398
26 июля, пн
пн2623:00+27з127451 0.0 1014119
02:00+26ююз127580 0.0 1014142
05:00+25юв338252 0.0 1014110
08:00+26вюв337478 0.0 1015213
11:00+31ссв225398 0.0 1015779
14:00+30с7661100 0.0 1014515
17:00+30св786485 0.4 1014840
20:00+25вюв4581100 2.1 1017312
27 июля, вт
вт2723:00+25юз4678100 0.2 1017224
02:00+25вюв4683100 0.2 1016246
05:00+24вюв4581100 0.0 1015210
08:00+26вюв5778100 0.0 1017428
11:00+32в575858 0.0 1016834
14:00+33св88495 0.0 10141371
17:00+31св1110606 0.0 1013803
20:00+28всв8137462 0.0 1014473